Louisville Bowman, KY

5:23 AM EDT on September 26, 2017 (GMT -0400)
Bowman

Weather History for KLOU - March, 2013

Change the Weather History Date:

Saturday, March 23, 2013

  Actual Average Record
Temperature  
Mean Temperature 48 °F 49 °F  
Max Temperature 56 °F 59 °F 78 °F (2011)
Min Temperature 39 °F 39 °F 20 °F (1960)
Degree Days  
Heating Degree Days 17 16  
Month to date heating degree days 578 446  
Since 1 July heating degree days 3808 3807  
Cooling Degree Days 0 0  
Month to date cooling degree days 0 0  
Year to date cooling degree days 0 0  
Moisture  
Dew Point 21 °F    
Average Humidity 37    
Maximum Humidity 44    
Minimum Humidity 29    
Precipitation  
Precipitation 0.00 in 0.14 in 1.13 in (2012)
Month to date precipitation 3.51 2.96  
Year to date precipitation 10.22 9.52  
Sea Level Pressure  
Sea Level Pressure 29.99 in    
Wind  
Wind Speed 4 mph (ENE)    
Max Wind Speed 14 mph    
Max Gust Speed 21 mph    
Visibility 10 miles    
Events      
T = Trace of Precipitation, MM = Missing Value Source: NWS Daily Summary

Daily Weather History Graph

Daily Weather History Graph

Search for Another Location

Airport or City:

Trip Planner

Search our weather history database for the weather conditions in past years. The results will help you decide how hot, cold, wet, or windy it might be!

Date:

Astronomy

Mar. 23, 2013 Rise Set
Actual Time 7:41 AM EDT 7:57 PM EDT
Civil Twilight 7:14 AM EDT 8:24 PM EDT
Nautical Twilight 6:43 AM EDT 8:55 PM EDT
Astronomical Twilight 6:12 AM EDT 9:26 PM EDT
Moon 4:26 PM EDT (3/23) 5:14 AM EDT (3/23)
Length of Visible Light 13h 09m
Length of Day
12h 16m
Waxing Gibbous, 85% of the Moon is Illuminated
Mar 23
Waxing Gibbous
Mar 27
Full
Apr 3
Last Quarter
Apr 10
New
Apr 18
First Quarter

Hourly Weather History & Observations

Time (EDT) Temp. Windchill Dew Point Humidity Pressure Visibility Wind Dir Wind Speed Gust Speed Precip Events Conditions
12:53 AM 39.9 °F - 15.1 °F 36% 30.05 in 10.0 mi Calm Calm - N/A   Overcast
1:53 AM 39.9 °F - 16.0 °F 38% 30.05 in 10.0 mi Calm Calm - N/A   Overcast
2:53 AM 39.0 °F - 19.0 °F 45% 30.04 in 10.0 mi Calm Calm - N/A   Overcast
3:53 AM 39.0 °F - 18.0 °F 43% 30.03 in 10.0 mi Calm Calm - N/A   Overcast
4:53 AM 39.0 °F 36.8 °F 19.0 °F 45% 30.01 in 10.0 mi NNE 3.5 mph - N/A   Overcast
5:53 AM 39.0 °F - 19.0 °F 45% 30.02 in 10.0 mi Calm Calm - N/A   Overcast
6:53 AM 39.0 °F - 19.0 °F 45% 30.03 in 10.0 mi Calm Calm - N/A   Overcast
7:53 AM 39.9 °F - 19.9 °F 45% 30.04 in 10.0 mi Calm Calm - N/A   Overcast
8:53 AM 39.9 °F 37.8 °F 19.9 °F 45% 30.06 in 10.0 mi North 3.5 mph - N/A   Overcast
9:53 AM 41.0 °F 38.0 °F 19.9 °F 43% 30.06 in 10.0 mi ENE 4.6 mph - N/A   Overcast
10:53 AM 43.0 °F 40.3 °F 21.0 °F 42% 30.06 in 10.0 mi East 4.6 mph - N/A   Overcast
11:53 AM 46.9 °F - 18.0 °F 32% 30.05 in 10.0 mi East 5.8 mph - N/A   Overcast
12:53 PM 48.0 °F - 19.0 °F 32% 30.05 in 10.0 mi Variable 4.6 mph - N/A   Partly Cloudy
1:53 PM 51.1 °F - 21.0 °F 31% 30.04 in 10.0 mi Variable 5.8 mph - N/A   Clear
2:53 PM 53.1 °F - 23.0 °F 31% 30.00 in 10.0 mi Calm Calm - N/A   Clear
3:53 PM 55.0 °F - 25.0 °F 31% 29.97 in 10.0 mi NNE 4.6 mph - N/A   Clear
4:53 PM 55.0 °F - 25.0 °F 31% 29.95 in 10.0 mi East 6.9 mph - N/A   Clear
5:53 PM 54.0 °F - 24.1 °F 31% 29.94 in 10.0 mi ENE 6.9 mph - N/A   Clear
6:53 PM 54.0 °F - 24.1 °F 31% 29.93 in 10.0 mi ENE 6.9 mph - N/A   Clear
7:53 PM 52.0 °F - 24.1 °F 34% 29.92 in 10.0 mi NE 5.8 mph - N/A   Clear
8:53 PM 51.1 °F - 23.0 °F 33% 29.91 in 10.0 mi ENE 6.9 mph - N/A   Clear
9:53 PM 48.9 °F - 24.1 °F 38% 29.89 in 10.0 mi East 5.8 mph - N/A   Clear
10:53 PM 48.0 °F - 23.0 °F 37% 29.87 in 10.0 mi ENE 6.9 mph - N/A   Clear
11:53 PM 46.9 °F - 23.0 °F 39% 29.85 in 10.0 mi ENE 9.2 mph - N/A   Clear